TimeCDT,TemperatureF,Dew PointF,Humidity,Sea Level PressureIn,VisibilityMPH,Wind Direction,Wind SpeedMPH,Gust SpeedMPH,PrecipitationIn,Events,Conditions,WindDirDegrees,DateUTC
12:15 AM,73.4,60.8,65,29.81,10.0,WSW,8.1,15.0,N/A,,Mostly Cloudy,250,2013-10-05 05:15:00
12:35 AM,71.6,60.8,69,29.80,10.0,WSW,8.1,-,N/A,,Scattered Clouds,250,2013-10-05 05:35:00
12:55 AM,69.8,60.8,73,29.81,10.0,WSW,6.9,-,N/A,,Clear,240,2013-10-05 05:55:00
1:15 AM,69.8,60.8,73,29.82,10.0,WSW,8.1,-,N/A,,Clear,240,2013-10-05 06:15:00
1:35 AM,68.0,60.8,78,29.83,10.0,WSW,8.1,15.0,N/A,,Scattered Clouds,240,2013-10-05 06:35:00
1:55 AM,68.0,59.0,73,29.84,10.0,WSW,15.0,21.9,N/A,,Scattered Clouds,250,2013-10-05 06:55:00
2:15 AM,66.2,55.4,68,29.84,10.0,West,15.0,25.3,N/A,,Scattered Clouds,260,2013-10-05 07:15:00
2:35 AM,64.4,53.6,68,29.85,10.0,West,9.2,-,N/A,,Partly Cloudy,270,2013-10-05 07:35:00
2:55 AM,62.6,51.8,68,29.84,10.0,West,10.4,16.1,N/A,,Clear,270,2013-10-05 07:55:00
3:15 AM,62.6,51.8,68,29.84,10.0,WNW,6.9,-,N/A,,Mostly Cloudy,290,2013-10-05 08:15:00
3:35 AM,60.8,51.8,72,29.83,10.0,West,12.7,-,N/A,,Scattered Clouds,270,2013-10-05 08:35:00
3:55 AM,59.0,50.0,72,29.82,10.0,West,11.5,-,N/A,,Clear,280,2013-10-05 08:55:00
4:15 AM,59.0,50.0,72,29.85,10.0,WSW,11.5,-,N/A,,Clear,250,2013-10-05 09:15:00
4:35 AM,57.2,50.0,77,29.85,10.0,WNW,10.4,-,N/A,,Partly Cloudy,290,2013-10-05 09:35:00
4:55 AM,55.4,48.2,77,29.86,10.0,West,12.7,-,N/A,,Clear,270,2013-10-05 09:55:00
5:15 AM,55.4,46.4,72,29.86,10.0,West,10.4,-,N/A,,Clear,280,2013-10-05 10:15:00
5:35 AM,55.4,46.4,72,29.87,10.0,WSW,6.9,12.7,N/A,,Partly Cloudy,250,2013-10-05 10:35:00
5:55 AM,53.6,46.4,77,29.87,10.0,WSW,8.1,-,N/A,,Mostly Cloudy,250,2013-10-05 10:55:00
6:15 AM,53.6,44.6,72,29.88,10.0,WSW,8.1,-,N/A,,Partly Cloudy,250,2013-10-05 11:15:00
6:35 AM,53.6,42.8,67,29.87,10.0,West,11.5,-,N/A,,Clear,280,2013-10-05 11:35:00
6:55 AM,51.8,39.2,62,29.90,10.0,West,11.5,-,N/A,,Clear,260,2013-10-05 11:55:00
7:15 AM,50.0,37.4,62,29.92,10.0,West,10.4,17.3,N/A,,Clear,260,2013-10-05 12:15:00
7:35 AM,50.0,37.4,62,29.92,10.0,West,9.2,15.0,N/A,,Mostly Cloudy,270,2013-10-05 12:35:00
7:55 AM,50.0,37.4,62,29.92,10.0,West,6.9,-,N/A,,Overcast,280,2013-10-05 12:55:00
8:15 AM,50.0,39.2,66,29.92,10.0,West,8.1,-,N/A,,Overcast,260,2013-10-05 13:15:00
8:35 AM,50.0,39.2,66,29.92,10.0,WSW,10.4,-,N/A,,Overcast,250,2013-10-05 13:35:00
8:55 AM,48.2,37.4,66,29.92,10.0,West,15.0,-,N/A,,Overcast,280,2013-10-05 13:55:00
9:15 AM,48.2,35.6,62,29.92,10.0,West,6.9,15.0,N/A,,Overcast,280,2013-10-05 14:15:00
9:35 AM,48.2,37.4,66,29.92,10.0,West,6.9,-,N/A,,Overcast,260,2013-10-05 14:35:00
9:55 AM,48.2,35.6,62,29.93,10.0,WSW,8.1,-,N/A,,Overcast,240,2013-10-05 14:55:00
10:15 AM,50.0,35.6,58,29.93,10.0,SW,9.2,-,N/A,,Overcast,220,2013-10-05 15:15:00
10:35 AM,50.0,35.6,58,29.92,10.0,SSW,10.4,-,N/A,,Overcast,210,2013-10-05 15:35:00
10:55 AM,50.0,35.6,58,29.91,10.0,WSW,8.1,15.0,N/A,,Overcast,250,2013-10-05 15:55:00
11:15 AM,51.8,37.4,58,29.91,10.0,WSW,10.4,-,N/A,,Mostly Cloudy,240,2013-10-05 16:15:00
11:35 AM,51.8,37.4,58,29.91,10.0,WSW,10.4,17.3,N/A,,Partly Cloudy,250,2013-10-05 16:35:00
11:55 AM,53.6,35.6,51,29.90,10.0,SW,12.7,19.6,N/A,,Partly Cloudy,230,2013-10-05 16:55:00
12:15 PM,53.6,37.4,54,29.89,10.0,SW,12.7,18.4,N/A,,Partly Cloudy,230,2013-10-05 17:15:00
12:35 PM,53.6,37.4,54,29.88,10.0,WSW,12.7,-,N/A,,Clear,250,2013-10-05 17:35:00
12:55 PM,55.4,37.4,51,29.87,10.0,SW,10.4,17.3,N/A,,Clear,220,2013-10-05 17:55:00
1:15 PM,57.2,37.4,48,29.87,10.0,Variable,6.9,13.8,N/A,,Clear,0,2013-10-05 18:15:00
1:35 PM,57.2,39.2,51,29.86,10.0,SSW,10.4,17.3,N/A,,Clear,200,2013-10-05 18:35:00
1:55 PM,59.0,39.2,48,29.86,10.0,SW,12.7,-,N/A,,Clear,220,2013-10-05 18:55:00
2:15 PM,59.0,39.2,48,29.85,10.0,SW,13.8,21.9,N/A,,Partly Cloudy,230,2013-10-05 19:15:00
2:35 PM,59.0,39.2,48,29.84,10.0,SW,10.4,21.9,N/A,,Mostly Cloudy,230,2013-10-05 19:35:00
2:55 PM,59.0,39.2,48,29.83,10.0,SW,15.0,20.7,N/A,,Partly Cloudy,220,2013-10-05 19:55:00
3:15 PM,60.8,39.2,45,29.83,10.0,SW,16.1,26.5,N/A,,Clear,220,2013-10-05 20:15:00
3:35 PM,59.0,39.2,48,29.83,10.0,WSW,10.4,19.6,N/A,,Clear,240,2013-10-05 20:35:00
3:55 PM,59.0,37.4,45,29.83,10.0,SW,16.1,25.3,N/A,,Clear,230,2013-10-05 20:55:00
4:15 PM,57.2,37.4,48,29.82,10.0,SW,12.7,23.0,N/A,,Clear,220,2013-10-05 21:15:00
4:35 PM,57.2,37.4,48,29.81,10.0,SW,12.7,20.7,N/A,,Clear,230,2013-10-05 21:35:00
4:55 PM,57.2,35.6,44,29.82,10.0,WSW,12.7,21.9,N/A,,Clear,250,2013-10-05 21:55:00
5:15 PM,55.4,35.6,47,29.82,10.0,WSW,11.5,20.7,N/A,,Clear,240,2013-10-05 22:15:00
5:35 PM,55.4,35.6,47,29.82,10.0,SW,12.7,20.7,N/A,,Clear,230,2013-10-05 22:35:00
5:55 PM,53.6,35.6,51,29.83,10.0,WSW,16.1,23.0,N/A,,Clear,240,2013-10-05 22:55:00
6:15 PM,53.6,35.6,51,29.82,10.0,WSW,12.7,-,N/A,,Clear,240,2013-10-05 23:15:00
6:35 PM,51.8,35.6,54,29.82,10.0,SW,6.9,-,N/A,,Partly Cloudy,220,2013-10-05 23:35:00
6:55 PM,53.6,35.6,51,29.83,10.0,SW,9.2,-,N/A,,Mostly Cloudy,230,2013-10-05 23:55:00
7:15 PM,51.8,35.6,54,29.83,10.0,WSW,15.0,-,N/A,,Mostly Cloudy,240,2013-10-06 00:15:00
7:35 PM,51.8,33.8,50,29.84,10.0,SW,13.8,20.7,N/A,,Scattered Clouds,230,2013-10-06 00:35:00
7:55 PM,51.8,32.0,47,29.84,10.0,WSW,11.5,21.9,N/A,,Partly Cloudy,240,2013-10-06 00:55:00
8:15 PM,51.8,33.8,50,29.84,10.0,SW,9.2,-,N/A,,Mostly Cloudy,230,2013-10-06 01:15:00
8:35 PM,50.0,33.8,54,29.83,10.0,SW,6.9,-,N/A,,Overcast,220,2013-10-06 01:35:00
8:55 PM,50.0,33.8,54,29.83,10.0,SSW,6.9,-,N/A,,Scattered Clouds,210,2013-10-06 01:55:00
9:15 PM,50.0,33.8,54,29.82,10.0,SSW,6.9,-,N/A,,Scattered Clouds,210,2013-10-06 02:15:00
9:35 PM,48.2,35.6,62,29.83,10.0,SW,8.1,-,N/A,,Partly Cloudy,220,2013-10-06 02:35:00
9:55 PM,50.0,35.6,58,29.82,10.0,SW,8.1,-,N/A,,Mostly Cloudy,220,2013-10-06 02:55:00
10:15 PM,50.0,35.6,58,29.82,10.0,SW,12.7,-,N/A,,Overcast,230,2013-10-06 03:15:00
10:35 PM,50.0,33.8,54,29.82,10.0,SW,10.4,-,N/A,,Overcast,230,2013-10-06 03:35:00
10:55 PM,50.0,33.8,54,29.81,10.0,SW,6.9,15.0,N/A,,Overcast,230,2013-10-06 03:55:00
11:15 PM,50.0,35.6,58,29.80,10.0,SW,10.4,-,N/A,,Overcast,220,2013-10-06 04:15:00
11:35 PM,50.0,33.8,54,29.80,10.0,SW,11.5,-,N/A,,Overcast,220,2013-10-06 04:35:00
11:55 PM,48.2,33.8,58,29.78,10.0,SW,12.7,18.4,N/A,,Overcast,220,2013-10-06 04:55:00